Location: Alma
(38.7220°N, 88.9090°W)
Time: 06:31:45
(UTC-06:00)

ISS - Pass Details

Date: 28 October 2019
Orbit: 412 x 421 km, 51.6° (Epoch: 18 November)

Event Time Altitude Azimuth Distance (km) Brightness Sun altitude
Exits shadow 05:54:41 33° 322° (NW) 725 -2.9 -16.8°
Maximum altitude 05:54:50 34° 329° (NNW) 721 -2.9 -16.8°
Drops below altitude 10° 05:57:58 10° 36° (NE) 1,507 -0.5 -16.2°
Sets 06:00:11 0° 46° (NE) 2,373 0.7 -15.7°
